Location: Bannatyne
(13.0833°N, 59.5333°W)
Time: 00:23:41
(UTC+00:00)

Transit 4A - Pass Details

Date: 26 January 2021
Orbit: 866 x 978 km, 66.8° (Epoch: 03 March)

Event Time Altitude Azimuth Distance (km) Brightness Sun altitude
Exits shadow 08:16:22 40° 28° (NNE) 1,294 8.6 -30.9°
Maximum altitude 08:17:50 48° 68° (ENE) 1,145 8.6 -30.6°
Drops below altitude 10° 08:23:25 10° 141° (SE) 2,520 10.8 -29.3°
Sets 08:25:57 0° 147° (SSE) 3,449 11.5 -28.7°
